Location: Ste-F�licit�
(48.8999°N, 67.3360°W)
Time: 06:00:27
(UTC-05:00)

DELFI C3 - Pass Details

Date: 24 October 2020
Orbit: 532 x 551 km, 97.4° (Epoch: 28 November)

Event Time Altitude Azimuth Distance (km) Brightness Sun altitude
Exits shadow 20:19:16 17° 342° (NNW) 1,429 ? -29.6°
Drops below altitude 10° 20:20:17 10° 344° (NNW) 1,843 ? -29.8°
Sets 20:22:26 0° 346° (NNW) 2,742 ? -30.1°
